Schneifelwetter: Wetterstation Hallschlag, 537 m . NN
Wetterdaten: Freitag, 18.11.2011
Datum Zeit Temp. A. Feuchte A. Luftdruck Regen Wind Richtung Richtung Sonnenschein Helligkeit T Regen Taupunkt Windchill
18.11.2011 00:00 3,4 C 97 % 1021 hPa 0,0 l/m 0,0 km/h (0 Bft) S 185 0 min 0 lux 0 min 3,0 C 3,4 C
18.11.2011 00:15 3,5 C 97 % 1021 hPa 0,0 l/m 0,0 km/h (0 Bft) S 185 0 min 0 lux 0 min 3,1 C 3,5 C
18.11.2011 00:30 3,5 C 97 % 1021 hPa 0,0 l/m 0,0 km/h (0 Bft) S 185 0 min 0 lux 0 min 3,1 C 3,5 C
18.11.2011 00:45 3,6 C 97 % 1021 hPa 0,3 l/m 0,0 km/h (0 Bft) S 185 0 min 0 lux 15 min 3,2 C 3,6 C
18.11.2011 01:00 3,6 C 97 % 1021 hPa 0,0 l/m 0,0 km/h (0 Bft) S 185 0 min 0 lux 0 min 3,2 C 3,6 C
18.11.2011 01:15 3,6 C 97 % 1021 hPa 0,0 l/m 0,0 km/h (0 Bft) S 185 0 min 0 lux 0 min 3,2 C 3,6 C
18.11.2011 01:30 3,7 C 97 % 1021 hPa 0,0 l/m 0,0 km/h (0 Bft) S 185 0 min 0 lux 0 min 3,3 C 3,7 C
18.11.2011 01:45 3,7 C 97 % 1021 hPa 0,0 l/m 0,0 km/h (0 Bft) S 185 0 min 0 lux 0 min 3,3 C 3,7 C
18.11.2011 02:00 3,8 C 97 % 1021 hPa 0,0 l/m 0,0 km/h (0 Bft) S 185 0 min 0 lux 0 min 3,4 C 3,8 C
18.11.2011 02:15 3,8 C 97 % 1021 hPa 0,0 l/m 0,0 km/h (0 Bft) S 180 0 min 0 lux 0 min 3,4 C 3,8 C
18.11.2011 02:30 3,8 C 97 % 1021 hPa 0,0 l/m 0,0 km/h (0 Bft) S 185 0 min 0 lux 0 min 3,4 C 3,8 C
18.11.2011 02:45 3,8 C 97 % 1021 hPa 0,0 l/m 0,0 km/h (0 Bft) S 185 0 min 0 lux 0 min 3,4 C 3,8 C
18.11.2011 03:00 3,8 C 97 % 1021 hPa 0,0 l/m 0,0 km/h (0 Bft) S 180 0 min 0 lux 0 min 3,4 C 3,8 C
18.11.2011 03:15 3,9 C 97 % 1021 hPa 0,0 l/m 0,0 km/h (0 Bft) S 185 0 min 0 lux 0 min 3,5 C 3,9 C
18.11.2011 03:30 3,9 C 97 % 1021 hPa 0,0 l/m 0,0 km/h (0 Bft) S 185 0 min 0 lux 0 min 3,5 C 3,9 C
18.11.2011 03:45 3,9 C 97 % 1021 hPa 0,0 l/m 0,0 km/h (0 Bft) S 180 0 min 0 lux 0 min 3,5 C 3,9 C
18.11.2011 04:00 4,0 C 97 % 1021 hPa 0,0 l/m 0,0 km/h (0 Bft) S 185 0 min 0 lux 0 min 3,6 C 4,0 C
18.11.2011 04:15 4,0 C 97 % 1021 hPa 0,0 l/m 0,0 km/h (0 Bft) S 185 0 min 0 lux 0 min 3,6 C 4,0 C
18.11.2011 04:30 4,1 C 97 % 1021 hPa 0,0 l/m 0,0 km/h (0 Bft) S 185 0 min 0 lux 0 min 3,7 C 4,1 C
18.11.2011 04:45 4,1 C 97 % 1021 hPa 0,0 l/m 4,2 km/h (1 Bft) S 185 0 min 0 lux 0 min 3,7 C 4,1 C
18.11.2011 05:00 4,2 C 97 % 1021 hPa 0,0 l/m 4,9 km/h (1 Bft) S 185 0 min 0 lux 0 min 3,8 C 4,2 C
18.11.2011 05:15 4,2 C 97 % 1021 hPa 0,0 l/m 7,0 km/h (2 Bft) W45 260 0 min 0 lux 0 min 3,8 C 3,7 C
18.11.2011 05:30 4,2 C 98 % 1021 hPa 0,0 l/m 6,5 km/h (2 Bft) W-SW 255 0 min 0 lux 0 min 3,9 C 4,1 C
18.11.2011 05:45 4,1 C 98 % 1021 hPa 0,0 l/m 0,2 km/h (0 Bft) W-SW 255 0 min 0 lux 0 min 3,8 C 4,1 C
18.11.2011 06:00 4,1 C 98 % 1021 hPa 0,0 l/m 0,0 km/h (0 Bft) W-SW 255 0 min 0 lux 0 min 3,8 C 4,1 C
18.11.2011 06:15 4,0 C 98 % 1021 hPa 0,0 l/m 0,4 km/h (0 Bft) W-SW 255 0 min 0 lux 0 min 3,7 C 4,0 C
18.11.2011 06:30 4,0 C 98 % 1021 hPa 0,0 l/m 0,3 km/h (0 Bft) W-SW 255 0 min 0 lux 0 min 3,7 C 4,0 C
18.11.2011 06:45 4,0 C 98 % 1021 hPa 0,0 l/m 3,9 km/h (1 Bft) W-SW 255 0 min 0 lux 0 min 3,7 C 4,0 C
18.11.2011 07:00 3,9 C 98 % 1021 hPa 0,0 l/m 7,4 km/h (2 Bft) W-SW 255 0 min 0 lux 0 min 3,6 C 3,0 C
18.11.2011 07:15 3,9 C 98 % 1021 hPa 0,0 l/m 4,6 km/h (1 Bft) W-SW 250 0 min 0 lux 0 min 3,6 C 3,9 C
18.11.2011 07:30 3,9 C 98 % 1021 hPa 0,0 l/m 1,5 km/h (1 Bft) W-SW 250 0 min 0 lux 0 min 3,6 C 3,9 C
18.11.2011 07:45 3,9 C 98 % 1021 hPa 0,0 l/m 0,0 km/h (0 Bft) W-SW 250 0 min 94 lux 0 min 3,6 C 3,9 C
18.11.2011 08:01 3,7 C 98 % 1021 hPa 0,0 l/m 0,0 km/h (0 Bft) W-SW 250 0 min 388 lux 0 min 3,4 C 3,7 C
18.11.2011 08:15 3,7 C 98 % 1021 hPa 0,0 l/m 0,1 km/h (0 Bft) W-SW 250 0 min 872 lux 0 min 3,4 C 3,7 C
18.11.2011 08:30 3,8 C 98 % 1021 hPa 0,0 l/m 0,0 km/h (0 Bft) W-SW 250 0 min 1,66 klux 0 min 3,5 C 3,8 C
18.11.2011 08:45 3,9 C 98 % 1021 hPa 0,0 l/m 0,0 km/h (0 Bft) W-SW 250 0 min 2,55 klux 0 min 3,6 C 3,9 C
18.11.2011 09:00 4,1 C 98 % 1021 hPa 0,0 l/m 0,0 km/h (0 Bft) W-SW 250 0 min 3,55 klux 0 min 3,8 C 4,1 C
18.11.2011 09:15 4,3 C 98 % 1021 hPa 0,0 l/m 0,0 km/h (0 Bft) W-SW 250 0 min 4,53 klux 0 min 4,0 C 4,3 C
18.11.2011 09:31 4,6 C 98 % 1022 hPa 0,0 l/m 0,0 km/h (0 Bft) W-SW 250 0 min 5,67 klux 0 min 4,3 C 4,6 C
18.11.2011 09:45 4,9 C 98 % 1022 hPa 0,0 l/m 0,0 km/h (0 Bft) W-SW 250 0 min 6,82 klux 0 min 4,6 C 4,9 C
18.11.2011 10:00 5,2 C 98 % 1022 hPa 0,0 l/m 0,0 km/h (0 Bft) W-SW 250 0 min 7,69 klux 0 min 4,9 C 5,2 C
18.11.2011 10:15 5,6 C 98 % 1022 hPa 0,0 l/m 0,1 km/h (0 Bft) W-SW 250 0 min 8,91 klux 0 min 5,3 C 5,6 C
18.11.2011 10:30 6,0 C 98 % 1022 hPa 0,0 l/m 0,0 km/h (0 Bft) W-SW 250 0 min 10,7 klux 0 min 5,7 C 6,0 C
18.11.2011 10:45 6,4 C 98 % 1022 hPa 0,0 l/m 5,2 km/h (1 Bft) W-SW 250 0 min 8,59 klux 0 min 6,1 C 6,4 C
18.11.2011 11:01 6,4 C 98 % 1022 hPa 0,0 l/m 0,6 km/h (0 Bft) W-SW 250 0 min 7,26 klux 0 min 6,1 C 6,4 C
18.11.2011 11:15 6,6 C 98 % 1022 hPa 0,0 l/m 2,1 km/h (1 Bft) W-SW 250 0 min 6,97 klux 0 min 6,3 C 6,6 C
18.11.2011 11:30 6,7 C 97 % 1022 hPa 0,0 l/m 0,0 km/h (0 Bft) W-SW 250 0 min 7,15 klux 0 min 6,3 C 6,7 C
18.11.2011 11:45 6,9 C 97 % 1022 hPa 0,0 l/m 0,0 km/h (0 Bft) W-SW 250 0 min 7,72 klux 0 min 6,5 C 6,9 C
18.11.2011 12:00 7,0 C 97 % 1021 hPa 0,0 l/m 0,0 km/h (0 Bft) W-SW 250 0 min 10,4 klux 0 min 6,6 C 7,0 C
18.11.2011 12:15 7,4 C 97 % 1021 hPa 0,0 l/m 0,2 km/h (0 Bft) W-SW 250 0 min 12,3 klux 0 min 7,0 C 7,4 C
18.11.2011 12:31 7,8 C 97 % 1021 hPa 0,0 l/m 0,0 km/h (0 Bft) W-SW 250 0 min 12,5 klux 0 min 7,4 C 7,8 C
18.11.2011 12:45 8,1 C 96 % 1021 hPa 0,0 l/m 0,0 km/h (0 Bft) W-SW 250 0 min 12,9 klux 0 min 7,5 C 8,1 C
18.11.2011 13:00 8,3 C 96 % 1021 hPa 0,0 l/m 1,5 km/h (1 Bft) W-SW 250 0 min 12,8 klux 0 min 7,7 C 8,3 C
18.11.2011 13:15 8,3 C 95 % 1021 hPa 0,0 l/m 3,9 km/h (1 Bft) W-SW 255 0 min 12,4 klux 0 min 7,5 C 8,3 C
18.11.2011 13:30 8,4 C 94 % 1021 hPa 0,0 l/m 3,9 km/h (1 Bft) W-SW 255 0 min 12,6 klux 0 min 7,5 C 8,4 C
18.11.2011 13:45 8,6 C 94 % 1020 hPa 0,0 l/m 2,9 km/h (1 Bft) W-SW 255 0 min 12,2 klux 0 min 7,7 C 8,6 C
18.11.2011 14:01 8,8 C 94 % 1020 hPa 0,0 l/m 0,0 km/h (0 Bft) W-SW 255 0 min 11,6 klux 0 min 7,9 C 8,8 C
18.11.2011 14:15 8,9 C 94 % 1020 hPa 0,0 l/m 0,0 km/h (0 Bft) W-SW 255 0 min 10,3 klux 0 min 8,0 C 8,9 C
18.11.2011 14:30 8,9 C 92 % 1020 hPa 0,0 l/m 5,9 km/h (2 Bft) S-SO 165 0 min 9,8 klux 0 min 7,7 C 8,9 C
18.11.2011 14:45 8,8 C 92 % 1020 hPa 0,0 l/m 7,6 km/h (2 Bft) S-SO 165 0 min 9,0 klux 0 min 7,6 C 7,9 C
18.11.2011 15:00 8,6 C 91 % 1020 hPa 0,0 l/m 5,4 km/h (1 Bft) S-SO 165 0 min 8,56 klux 0 min 7,2 C 8,6 C
18.11.2011 15:16 8,3 C 91 % 1020 hPa 0,0 l/m 7,2 km/h (2 Bft) S-SO 165 0 min 7,17 klux 0 min 6,9 C 7,7 C
18.11.2011 15:30 8,0 C 91 % 1020 hPa 0,0 l/m 7,0 km/h (2 Bft) S-SO 165 0 min 5,83 klux 0 min 6,6 C 7,5 C
18.11.2011 15:45 7,8 C 91 % 1020 hPa 0,0 l/m 7,2 km/h (2 Bft) S-SO 165 0 min 3,77 klux 0 min 6,4 C 7,2 C
18.11.2011 16:00 7,5 C 92 % 1020 hPa 0,0 l/m 8,9 km/h (2 Bft) S22.5 180 0 min 2,63 klux 0 min 6,3 C 5,6 C
18.11.2011 16:15 7,2 C 92 % 1020 hPa 0,0 l/m 8,2 km/h (2 Bft) S 170 0 min 2,16 klux 0 min 6,0 C 5,8 C
18.11.2011 16:30 7,0 C 93 % 1020 hPa 0,0 l/m 6,3 km/h (2 Bft) S 170 0 min 1,11 klux 0 min 5,9 C 7,0 C
18.11.2011 16:46 6,8 C 93 % 1020 hPa 0,0 l/m 0,0 km/h (0 Bft) S 170 0 min 358 lux 0 min 5,7 C 6,8 C
18.11.2011 17:00 6,8 C 94 % 1020 hPa 0,0 l/m 0,3 km/h (0 Bft) S 170 0 min 162 lux 0 min 5,9 C 6,8 C
18.11.2011 17:15 6,7 C 94 % 1020 hPa 0,0 l/m 0,8 km/h (0 Bft) S 175 0 min 36 lux 0 min 5,8 C 6,7 C
18.11.2011 17:30 6,6 C 94 % 1020 hPa 0,0 l/m 5,4 km/h (1 Bft) S 185 0 min 4 lux 0 min 5,7 C 6,6 C
18.11.2011 17:45 6,4 C 94 % 1020 hPa 0,0 l/m 0,0 km/h (0 Bft) S 190 0 min 0 lux 0 min 5,5 C 6,4 C
18.11.2011 18:00 6,4 C 94 % 1020 hPa 0,0 l/m 0,0 km/h (0 Bft) S 190 0 min 0 lux 0 min 5,5 C 6,4 C
18.11.2011 18:16 6,2 C 95 % 1020 hPa 0,0 l/m 0,0 km/h (0 Bft) S 190 0 min 0 lux 0 min 5,5 C 6,2 C
18.11.2011 18:30 6,0 C 95 % 1020 hPa 0,0 l/m 0,0 km/h (0 Bft) S 190 0 min 0 lux 0 min 5,3 C 6,0 C
18.11.2011 18:45 6,1 C 95 % 1019 hPa 0,0 l/m 0,0 km/h (0 Bft) S 190 0 min 0 lux 0 min 5,4 C 6,1 C
18.11.2011 19:00 6,1 C 95 % 1020 hPa 0,0 l/m 0,0 km/h (0 Bft) S 190 0 min 0 lux 0 min 5,4 C 6,1 C
18.11.2011 19:15 6,0 C 95 % 1019 hPa 0,0 l/m 0,0 km/h (0 Bft) S 190 0 min 0 lux 0 min 5,3 C 6,0 C
18.11.2011 19:30 6,0 C 95 % 1019 hPa 0,0 l/m 0,0 km/h (0 Bft) S 190 0 min 0 lux 0 min 5,3 C 6,0 C
18.11.2011 19:46 6,1 C 95 % 1019 hPa 0,0 l/m 0,0 km/h (0 Bft) S 190 0 min 0 lux 0 min 5,4 C 6,1 C
18.11.2011 20:00 6,1 C 95 % 1019 hPa 0,0 l/m 0,0 km/h (0 Bft) S 190 0 min 0 lux 0 min 5,4 C 6,1 C
18.11.2011 20:15 6,1 C 96 % 1019 hPa 0,0 l/m 4,3 km/h (1 Bft) S 190 0 min 0 lux 0 min 5,5 C 6,1 C
18.11.2011 20:30 6,1 C 96 % 1019 hPa 0,0 l/m 7,8 km/h (2 Bft) SO67.5 140 0 min 0 lux 0 min 5,5 C 4,9 C
18.11.2011 20:45 5,9 C 96 % 1019 hPa 0,0 l/m 8,0 km/h (2 Bft) N-NO 30 0 min 0 lux 0 min 5,3 C 4,5 C
18.11.2011 21:00 5,8 C 96 % 1019 hPa 0,0 l/m 6,1 km/h (2 Bft) N-NO 30 0 min 0 lux 0 min 5,2 C 5,8 C
18.11.2011 21:16 5,6 C 96 % 1019 hPa 0,0 l/m 0,7 km/h (0 Bft) N-NO 30 0 min 0 lux 0 min 5,0 C 5,6 C
18.11.2011 21:30 5,5 C 96 % 1019 hPa 0,0 l/m 0,0 km/h (0 Bft) N-NO 30 0 min 0 lux 0 min 4,9 C 5,5 C
18.11.2011 21:45 5,6 C 97 % 1019 hPa 0,0 l/m 4,5 km/h (1 Bft) N-NO 30 0 min 0 lux 0 min 5,2 C 5,6 C
18.11.2011 22:00 5,6 C 97 % 1019 hPa 0,0 l/m 0,0 km/h (0 Bft) N-NO 30 0 min 0 lux 0 min 5,2 C 5,6 C
18.11.2011 22:15 5,6 C 97 % 1019 hPa 0,0 l/m 6,9 km/h (2 Bft) N-NO 30 0 min 0 lux 0 min 5,2 C 5,2 C
18.11.2011 22:30 5,5 C 97 % 1019 hPa 0,0 l/m 8,6 km/h (2 Bft) N-NO 30 0 min 0 lux 0 min 5,1 C 3,7 C
18.11.2011 22:46 5,4 C 97 % 1019 hPa 0,0 l/m 0,0 km/h (0 Bft) NO 40 0 min 0 lux 0 min 5,0 C 5,4 C
18.11.2011 23:00 5,4 C 97 % 1019 hPa 0,0 l/m 0,0 km/h (0 Bft) NO 40 0 min 0 lux 0 min 5,0 C 5,4 C
18.11.2011 23:15 5,2 C 97 % 1019 hPa 0,0 l/m 0,0 km/h (0 Bft) NO 40 0 min 0 lux 0 min 4,8 C 5,2 C
18.11.2011 23:30 5,2 C 98 % 1018 hPa 0,0 l/m 0,0 km/h (0 Bft) NO 40 0 min 0 lux 0 min 4,9 C 5,2 C
18.11.2011 23:45 5,1 C 98 % 1018 hPa 0,0 l/m 4,2 km/h (1 Bft) NO 40 0 min 0 lux 0 min 4,8 C 5,1 C
_ Min-Zeit 00:00 15:00 23:30 - 00:00 - - - - - 00:00 07:00
Minimum _ 3,4 C 91 % 1018 hPa - 0,0 km/h (0 Bft) - - - - - 3,0 C 3,0 C
_ Max-Zeit 14:15 05:30 09:31 00:45 16:00 - - 00:00 12:45 00:45 14:15 14:15
Maximum _ 8,9 C 98 % 1022 hPa 0,3 l/m 8,9 km/h
S (2 Bft)
- - 0 min 12,9 klux 15 min 8,0 C 8,9 C
Durchschnitt _ 5,5 C 96 % 1021 hPa #0,3 l/m 1,9 km/h (1 Bft) W-SW - #0 min. 2,73 klux #15 min. 5,0 C 5,4 C